Theta_e
305 304 305 304 303 304 304 305 305 302 302 304 304 303 303 303 302 302 303 303 303 302 301 299 298 297 296 298 301 302 302 305 310 316 318 318 319 320 320 321 322 324 323 325
302 306 304 304 303 304 304 305 304 303 302 303 303 304 301 302 302 303 303 303 303 303 301 300 298 297 296 296 300 302 302 303 303 311 315 316 317 318 319 321 322 322 323 324
302 305 304 304 304 305 305 305 305 306 303 302 301 301 301 302 302 303 303 303 303 303 302 300 298 297 296 296 298 301 302 303 302 303 306 313 316 316 317 320 320 322 323 323
302 303 304 304 305 304 306 304 304 305 304 307 300 306 302 301 301 301 303 303 303 303 301 300 299 296 296 295 295 301 302 302 303 302 303 306 314 317 317 319 319 319 321 322
302 303 303 304 304 304 304 303 304 304 304 304 304 301 302 300 304 303 303 303 303 303 301 300 299 296 295 295 294 299 302 302 302 302 302 303 304 313 316 317 317 319 318 321
302 303 303 303 302 303 302 304 298 298 302 297 303 301 303 302 304 301 302 303 303 303 301 300 299 296 295 294 294 298 301 302 302 302 302 302 302 304 308 315 317 317 319 319
299 301 300 302 303 301 300 297 294 298 296 299 299 301 302 301 300 301 302 303 303 303 302 300 300 297 295 294 296 299 301 302 302 302 302 302 302 303 303 308 314 316 317 318
296 298 301 300 303 303 303 299 297 295 297 296 298 303 303 301 303 304 303 303 303 303 302 301 300 299 295 294 298 298 301 302 302 302 302 302 302 303 303 303 307 312 315 317
295 297 299 300 301 300 300 299 300 296 294 295 297 297 296 301 302 303 303 303 303 302 302 301 301 300 295 294 295 298 298 300 302 302 302 302 302 302 302 303 303 304 309 315
294 297 296 300 302 301 301 299 295 294 293 294 295 294 299 303 304 300 301 302 303 302 302 301 301 300 296 294 295 295 297 300 302 302 302 303 303 303 302 302 303 303 303 309
292 296 296 298 298 301 302 300 300 298 297 294 292 297 294 299 302 300 301 303 302 302 302 302 301 300 298 294 294 295 297 299 302 302 302 303 303 303 303 302 302 303 303 304
297 296 296 296 296 297 299 301 299 298 293 293 294 297 296 296 299 301 303 301 300 299 299 300 301 300 299 294 294 294 296 296 300 302 303 303 304 304 303 303 302 301 303 303
298 297 298 299 297 297 299 300 299 296 295 294 293 298 294 295 297 301 299 300 301 300 300 300 300 300 299 294 293 294 295 295 300 302 303 304 304 304 303 303 302 301 302 303
298 292 300 304 303 298 297 298 300 297 293 294 294 294 295 291 290 297 299 301 300 299 299 298 298 298 297 294 293 293 294 295 301 302 303 304 305 304 304 303 303 303 303 305
297 297 291 293 295 298 298 297 299 295 296 299 296 293 295 292 290 297 301 301 300 299 299 298 297 296 295 294 293 293 294 294 298 302 304 304 304 305 304 304 304 305 305 307
297 298 292 295 291 294 297 297 298 297 291 293 290 295 296 298 298 298 303 303 303 302 301 299 298 296 295 294 294 294 294 294 296 302 303 304 304 305 305 305 306 306 307 308
297 295 293 299 289 290 301 294 297 298 296 297 298 299 298 297 298 301 302 303 303 303 303 302 300 297 296 295 294 294 294 295 301 303 304 304 303 304 305 306 306 306 308 308
297 295 293 297 295 307 307 294 296 297 295 297 298 297 297 298 299 300 300 301 302 303 302 302 301 298 296 295 294 294 295 300 302 304 305 304 302 303 303 304 306 306 307 308
296 296 292 300 298 304 304 295 296 297 303 296 299 299 298 299 299 300 304 304 303 302 302 302 301 299 297 296 295 295 295 299 302 302 302 300 297 298 303 304 304 305 307 307
294 294 297 289 301 305 308 298 296 296 303 298 297 298 296 297 297 297 303 302 301 301 301 301 300 299 297 296 295 295 294 297 299 300 300 298 295 295 298 304 304 303 304 304
296 294 295 291 294 298 300 297 297 304 309 299 298 298 297 296 301 304 303 303 303 301 300 300 300 299 298 297 296 295 295 294 294 298 298 296 294 294 294 295 302 301 303 303
299 297 293 289 291 303 297 296 300 304 302 301 300 300 300 302 303 305 304 304 304 304 302 301 300 299 299 298 297 296 295 295 294 293 293 293 293 293 293 293 294 298 300 302
302 301 298 297 300 300 299 301 302 302 303 303 302 303 303 303 304 304 304 304 304 304 304 303 303 301 300 299 298 297 295 295 295 295 293 293 292 292 293 292 292 293 294 296
293 296 296 297 302 297 301 304 304 303 303 304 303 303 303 303 303 303 303 303 303 302 302 303 303 303 303 303 301 299 297 296 296 295 294 294 293 293 293 292 292 292 292 293
297 296 294 295 299 300 302 304 308 306 304 303 303 303 303 303 303 304 305 305 306 305 303 302 302 302 301 301 301 302 301 299 298 296 295 295 294 293 293 293 293 292 292 292
295 296 300 303 306 309 312 313 312 309 308 306 303 303 303 303 304 305 305 306 308 308 307 304 302 302 302 301 301 301 301 301 301 300 298 296 295 294 294 293 293 293 293 293
Wind_Speed
8 8 5 4 3 1 1 3 3 4 0 5 3 9 12 14 10 12 8 7 8 10 11 12 14 16 17 17 16 15 12 8 7 5 5 7 8 12 13 14 25 24 25 26
6 4 3 2 3 4 4 1 4 4 2 2 5 15 7 4 7 9 11 10 9 11 12 11 13 14 17 20 19 17 15 11 9 6 3 4 4 9 19 7 15 26 26 26
6 2 0 2 4 3 1 2 2 3 6 0 6 6 5 3 5 11 15 14 12 11 14 13 15 15 17 19 19 19 17 15 11 7 7 3 5 5 9 12 8 19 27 28
6 1 3 2 2 2 2 2 2 2 3 2 5 4 5 4 7 6 14 14 14 11 12 12 15 16 16 18 18 16 16 16 13 9 6 5 5 6 5 12 12 6 23 22
2 2 3 3 1 2 3 2 2 1 2 1 4 3 6 4 5 4 11 12 8 10 11 11 14 16 16 17 18 15 14 14 12 10 6 6 6 7 8 7 9 11 7 24
2 2 2 1 2 2 4 1 4 3 1 4 2 3 5 3 4 6 8 12 10 9 10 11 14 15 15 16 16 13 11 11 11 9 7 6 5 8 9 9 9 10 8 9
4 2 2 3 3 0 2 3 3 6 5 4 0 1 8 6 5 5 10 13 12 11 10 11 15 15 14 16 15 10 11 10 10 10 8 7 6 7 9 11 12 9 10 6
4 5 1 3 2 2 2 1 5 4 2 5 3 4 4 4 9 12 13 13 14 13 11 11 13 15 14 15 14 11 11 10 9 9 9 8 6 6 7 10 12 12 11 11
4 3 2 4 1 3 4 3 1 7 3 2 3 6 8 3 5 7 13 11 12 13 11 11 12 14 13 13 12 12 12 10 9 9 9 9 8 6 6 9 12 13 14 13
4 2 2 1 0 2 2 5 3 4 3 5 4 5 4 5 5 6 10 16 15 14 14 11 10 11 12 12 13 12 12 9 9 7 6 7 7 7 6 6 10 12 14 15
3 3 3 2 3 5 1 1 4 5 3 4 2 5 7 6 4 6 13 17 19 20 18 15 12 10 10 11 12 11 11 10 8 7 7 7 7 6 6 6 6 10 12 15
5 4 2 4 2 1 3 3 2 4 3 1 3 6 4 8 11 10 15 17 19 21 21 18 14 11 10 9 9 9 10 8 7 6 9 8 8 6 5 5 4 4 8 11
6 1 2 5 4 4 4 4 3 4 3 6 5 6 2 9 13 10 12 20 14 13 15 14 12 11 11 9 8 6 5 6 6 4 7 8 9 9 8 6 4 2 3 8
6 2 6 6 5 4 3 4 5 4 4 5 7 8 10 8 8 10 16 9 9 10 12 14 13 11 9 10 10 9 7 7 7 5 7 8 8 8 9 8 8 7 7 8
2 5 3 3 3 2 4 5 10 9 5 6 4 8 10 8 7 19 6 4 7 7 7 8 10 10 10 10 10 8 7 5 4 4 6 7 8 9 8 9 10 10 10 11
2 2 2 4 1 3 5 10 12 8 3 9 2 15 13 24 17 17 4 2 5 6 5 5 7 8 8 9 10 8 5 3 3 3 5 7 8 9 9 9 8 11 10 11
6 5 3 5 1 3 7 9 16 7 6 8 8 13 3 3 10 9 6 6 7 8 6 4 3 5 7 8 8 7 5 3 6 4 4 6 7 7 7 8 8 9 9 9
6 5 2 3 3 2 5 4 8 9 6 17 8 7 8 7 6 11 13 15 14 12 10 7 4 2 4 5 5 5 2 4 5 4 4 3 3 2 5 6 7 8 8 8
2 4 2 3 3 7 3 5 8 9 8 23 21 14 14 13 12 23 8 7 3 5 5 6 4 1 3 4 5 3 2 2 5 4 2 3 3 2 3 4 5 6 6 7
3 3 3 2 4 6 5 4 8 3 6 10 28 14 15 11 2 4 9 7 4 2 3 4 4 3 1 2 3 5 4 4 3 3 2 2 3 3 3 4 4 4 6 7
3 1 6 3 3 8 8 10 11 4 6 7 25 22 23 8 8 7 10 7 4 3 3 4 3 3 3 1 2 2 4 4 6 6 4 2 1 2 1 1 3 3 7 7
9 9 4 3 2 9 17 8 8 4 2 7 17 22 26 18 17 11 9 7 6 5 6 5 5 4 4 4 4 3 2 7 6 7 8 7 5 4 4 4 5 5 6 8
5 7 7 11 8 3 35 7 22 2 3 7 15 19 19 20 15 14 10 9 7 8 9 9 7 8 7 6 5 5 6 7 7 8 9 9 8 7 7 6 7 8 9 9
5 6 3 3 8 19 23 30 27 14 17 9 13 17 20 19 17 14 12 10 8 9 10 12 12 11 11 10 9 6 10 11 10 10 11 11 11 11 9 10 10 11 12 12
6 14 7 5 11 14 21 25 33 29 27 21 16 18 20 18 16 14 12 11 9 10 12 15 15 14 12 13 13 12 13 15 15 14 15 15 14 14 13 12 12 13 13 14
12 7 7 7 19 17 25 21 17 24 32 34 27 25 24 20 17 16 15 13 10 12 15 16 15 18 16 16 15 16 18 20 20 20 20 18 18 17 17 16 16 16 16 16
Wind_Direction
34 60 43 348 328 347 298 113 274 261 264 10 295 288 284 286 259 276 286 301 326 341 348 350 352 352 357 358 359 353 349 321 299 288 246 218 195 181 213 232 223 222 217 217
36 74 315 263 31 71 339 66 310 284 329 2 331 298 295 262 253 270 288 290 309 327 337 346 350 352 355 359 1 2 355 351 329 301 256 212 225 177 214 202 228 225 224 220
109 168 308 63 27 32 350 95 311 284 323 192 327 310 334 323 282 283 278 282 293 315 326 339 346 349 349 353 357 2 358 352 343 328 284 229 203 199 187 188 217 226 229 226
94 49 114 83 33 93 306 90 291 285 29 331 30 288 309 323 310 294 306 289 286 303 316 330 339 346 346 350 351 356 355 355 345 337 298 255 208 199 230 199 202 228 220 232
186 105 82 65 0 95 286 344 238 313 75 52 27 65 271 346 327 316 332 339 311 301 315 325 337 343 344 347 347 350 355 358 350 343 326 279 250 221 233 227 200 207 157 200
87 101 77 107 300 175 297 223 35 42 40 35 339 95 285 295 280 304 313 328 319 309 312 322 333 340 342 344 345 347 353 354 353 351 344 309 267 241 243 233 229 219 200 167
356 12 72 45 4 43 44 45 358 358 11 219 348 66 248 280 274 249 292 313 316 312 311 318 331 339 345 346 351 358 356 359 357 355 356 327 298 257 251 241 230 228 213 210
130 322 72 15 94 219 340 232 140 212 295 280 303 244 260 219 289 295 292 301 307 309 305 311 324 335 343 349 350 353 1 8 2 1 356 348 326 283 262 250 246 235 233 224
125 299 354 66 49 112 308 33 350 102 48 2 271 288 295 280 306 312 300 307 320 318 310 308 318 330 338 345 349 347 349 353 359 13 355 348 349 321 284 255 242 239 236 232
186 58 309 68 199 46 225 144 56 14 48 314 297 281 249 314 314 329 323 318 318 323 317 309 311 324 334 341 347 351 354 352 4 7 0 2 358 348 325 286 254 240 235 230
130 103 282 79 209 177 273 348 56 109 96 158 290 271 211 226 271 293 304 318 319 316 314 313 306 313 328 337 345 349 353 357 356 1 13 16 8 3 359 329 290 246 231 225
180 146 144 205 250 8 282 241 199 122 242 89 130 276 201 226 243 264 292 316 320 318 316 305 300 305 320 329 339 345 350 354 346 13 18 23 11 16 14 358 331 277 225 206
179 247 24 353 7 356 252 207 147 91 91 195 137 264 301 260 255 245 291 325 335 337 336 324 300 302 313 321 330 339 350 354 6 56 27 30 30 28 32 32 33 69 150 173
151 107 172 196 193 127 204 221 185 149 127 167 226 284 286 275 260 267 305 325 332 347 351 344 329 315 311 320 328 336 346 6 25 47 41 42 48 46 49 53 68 80 99 124
184 200 167 258 225 236 226 186 193 200 189 175 245 217 258 252 247 287 294 324 325 339 353 352 337 324 320 318 323 333 338 0 47 68 58 59 57 66 68 74 85 99 116 124
201 191 118 289 289 225 261 223 209 216 262 284 84 281 236 273 274 258 222 265 299 312 334 351 350 330 314 313 321 325 341 0 67 107 72 75 68 67 76 81 92 102 115 134
156 137 111 267 330 304 278 223 188 186 214 162 188 225 177 269 239 247 235 250 274 282 292 318 339 333 316 316 323 329 350 52 110 121 88 77 63 69 78 89 95 107 116 131
144 126 102 245 11 316 244 136 179 202 230 215 253 233 203 203 237 266 267 273 272 268 260 267 287 320 316 314 321 329 4 111 126 103 96 47 58 74 78 82 89 108 123 129
62 133 113 175 197 297 236 195 165 180 270 205 220 224 217 241 292 290 252 227 216 236 229 231 247 294 322 321 316 323 305 214 148 137 96 45 49 77 160 117 109 112 145 151
98 60 125 120 168 223 247 176 187 192 290 194 199 208 181 168 165 253 177 157 143 161 191 198 210 211 148 286 306 308 304 278 248 186 155 63 48 74 118 181 209 217 184 163
136 96 183 162 225 287 246 153 148 105 241 180 195 202 177 180 191 163 177 172 167 170 194 210 211 209 243 249 262 275 279 287 273 271 264 239 144 119 96 135 178 177 194 193
167 160 186 99 110 268 152 120 180 222 184 182 187 193 192 186 183 172 186 193 198 215 223 218 224 231 225 235 256 253 260 264 275 274 275 272 264 231 192 194 192 197 196 206
223 191 179 186 207 206 183 218 217 210 238 202 197 195 194 191 184 190 196 210 228 242 248 242 238 240 249 256 254 252 227 251 249 263 269 270 266 258 255 225 213 203 205 209
246 186 192 109 233 233 226 226 241 246 244 241 212 203 198 202 202 210 212 211 225 246 253 255 253 251 255 260 264 257 255 267 261 258 259 263 262 256 244 243 236 223 217 214
179 146 170 266 281 271 263 240 242 246 242 236 219 212 206 206 209 216 223 233 251 255 252 249 252 252 252 254 258 253 252 260 267 264 258 257 256 256 255 249 243 236 226 223
187 174 183 212 218 214 246 256 268 252 243 236 228 223 210 209 223 230 238 257 255 248 252 254 256 256 261 259 260 261 256 258 260 259 258 260 260 258 258 252 248 245 243 240